Regional Weather Roundup
Issued by NWS

Home | Current Version | Previous Version | Graphics & Text | Print | Product List | Glossary Off
Versions: 1 2 3 4 5 6 7 8 9 10 11 12 13 14 15 16 17 18 19 20 21 22 23 24 25 26 27 28 29 30 31 32 33 34 35 36 37 38 39 40 41 42 43 44 45 46 47 48 49 50

000
ASUS43 KIND 230259
RWRIN

WEATHER ROUNDUP FOR INDIANA
NATIONAL WEATHER SERVICE INDIANAPOLIS IN
1000 PM EST WED FEB 22 2017

NOTE: "FAIR" INDICATES FEW OR NO CLOUDS BELOW 12,000 FEET WITH NO
SIGNIFICANT WEATHER AND/OR OBSTRUCTIONS TO VISIBILITY.

* - STATION DOES NOT REPORT WEATHER SUCH AS PRECIPITATION OR FOG.

+ - STATION NOT QUALITY CONTROLLED BY THE NATIONAL WEATHER SERVICE.
    USE DATA WITH CAUTION...ESPECIALLY DEWPOINT AND RELATIVE
    HUMIDITY OBSERVATIONS.

INZ001>003-010>013-019-020-230400-
NORTHWEST INDIANA

CITY           SKY/WX    TMP DP  RH WIND       PRES   REMARKS
GARY /AIRPORT/ CLEAR     61  54  77 S9        29.65R
KNOX *+        PTCLDY    57  37  47 S14       29.67S
LA PORTE +     PTCLDY    56  53  87 S8        29.68R

$$

LMZ046-743>745-230400-
SOUTHERN LAKE MICHIGAN

STATION/POSITION TIME  TEMP    WIND        PRES    WAVE
                       AIR SEA DIR/SP/G            HT
                 (UTC) (F)     (DEG/KT/KT) (MB)    (FT)
BURNS HARBOR     0240   59     180/ 12/ 17 1004.4R
MICHIGAN CITY    0230   59     160/ 13/ 15   N/A

$$

INZ004-005-014>016-021>024-230400-
NORTH CENTRAL INDIANA

CITY           SKY/WX    TMP DP  RH WIND       PRES   REMARKS
GOSHEN         CLEAR     57  50  77 S9        29.68F
SOUTH BEND     MOCLDY    57  53  86 S12       29.68S
WARSAW +       CLEAR     55  52  88 S5        29.69F

$$

INZ006>009-017-018-025>027-230400-
NORTHEAST INDIANA

CITY           SKY/WX    TMP DP  RH WIND       PRES   REMARKS
ANGOLA *+      CLEAR     55  46  71 S5        29.71S
AUBURN +       CLEAR     55  52  88 CALM      29.72F
FORT WAYNE     PTCLDY    55  51  86 S10       29.73F
KENDALLVILLE + CLEAR     55  53  93 S8        29.71F

$$

INZ028-029-035-036-043>045-051>053-230400-
WEST CENTRAL INDIANA

CITY           SKY/WX    TMP DP  RH WIND       PRES   REMARKS
LAFAYETTE      CLEAR     60  54  80 S8        29.70S
TERRE HAUTE    CLEAR     60  53  77 S12       29.73F

$$

INZ030>032-037>040-046>048-054>057-064-065-230400-
CENTRAL INDIANA

CITY           SKY/WX    TMP DP  RH WIND       PRES   REMARKS
COLUMBUS       CLEAR     57  37  47 S9        29.79S
FRANKFORT +    CLEAR     60  55  84 S12       29.73F
GREENWOOD *+   CLOUDY    58  56  92 S7        29.77F
INDIANAPOLIS   PTCLDY    59  54  83 S10       29.74F
-EAGLE CREEK   PTCLDY    60  53  77 S5        29.74F
KOKOMO +       CLEAR     54  52  93 S10       29.73F
MT COMFORT *+  PTCLDY    57  54  88 S9        29.76F
SHELBYVILLE    CLOUDY    60  54  80 S12       29.77F
ZIONSVILLE +   CLOUDY    58  54  86 S8        29.75F

$$

INZ033-034-041-042-049-050-058-059-230400-
EAST CENTRAL INDIANA

CITY           SKY/WX    TMP DP  RH WIND       PRES   REMARKS
MUNCIE         CLEAR     59  54  83 S7        29.75F

$$

INZ060-061-067>069-081>083-085>088-230400-
SOUTHWEST INDIANA

CITY           SKY/WX    TMP DP  RH WIND       PRES   REMARKS
EVANSVILLE     CLEAR     57  53  86 CALM      29.79F
HUNTINGBURG *+ MOCLDY    61  55  82 S5        29.80S

$$

INZ062-063-066-070>080-084-089>092-230400-
SOUTH CENTRAL AND SOUTHEAST INDIANA

CITY           SKY/WX    TMP DP  RH WIND       PRES   REMARKS
BLOOMINGTON    CLEAR     60  53  77 S8        29.77F
MADISON *+     CLEAR     59  54  82 S5        29.83F
SEYMOUR +      CLEAR     59  54  82 S6        29.79F

$$





USA.gov is the U.S. government's official web portal to all federal, state and local government web resources and services.